Terug naar catalogus

STARLINK-34923

ActiefCommunicatieSSO
NORAD 65247·PAYLOAD·🇺🇸 United States

Gelanceerd Aug 18, 2025 vanaf Vandenberg Space Force Base

Loading…

Volgende Passages (komende 24 uur)

TLE

VersSource: CelesTrak SupGP

Epoch: Sep 15, 2026, 03:52 UTC

1 65247C 25179N   26258.16159722 -.00019726  00000+0 -61232-3 0  2585
2 65247  97.2832 297.6116 0001126  91.7834  78.9015 15.33451578    14

Volg STARLINK-34923 in realtime met AllMySat

Download on the App Store